Cahokia, IL

12:43 PM CDT on October 01, 2016 (GMT -0500)
Saint Louis Downtown

Weather History for KCPS - March, 2013

Change the Weather History Date:

Sunday, March 31, 2013

  Actual Average Record
Temperature  
Mean Temperature 56 °F -  
Max Temperature 68 °F 72 °F 82 °F (2006)
Min Temperature 46 °F 49 °F 28 °F (2003)
Degree Days  
Heating Degree Days 9    
Growing Degree Days 6 (Base 50)    
Moisture  
Dew Point 44 °F    
Average Humidity 74    
Maximum Humidity 100    
Minimum Humidity 31    
Precipitation  
Precipitation 0.00 in - - ()
Sea Level Pressure  
Sea Level Pressure 29.89 in    
Wind  
Wind Speed 3 mph (WNW)    
Max Wind Speed 15 mph    
Max Gust Speed 25 mph    
Visibility 6 miles    
Events      
Averages and records for this station are not official NWS values.
T = Trace of Precipitation, MM = Missing Value Source: NWS Daily Summary

Daily Weather History Graph

Daily Weather History Graph

Search for Another Location

Airport or City:

Trip Planner

Search our weather history database for the weather conditions in past years. The results will help you decide how hot, cold, wet, or windy it might be!

Date:

Astronomy

Mar. 31, 2013 Rise Set
Actual Time 6:46 AM CDT 7:23 PM CDT
Civil Twilight 6:19 AM CDT 7:50 PM CDT
Nautical Twilight 5:48 AM CDT 8:21 PM CDT
Astronomical Twilight 5:16 AM CDT 8:54 PM CDT
Moon No Moon Rise 9:37 AM CDT (3/31)
Length of Visible Light 13h 30m
Length of Day
12h 36m
Waning Gibbous, 77% of the Moon is Illuminated
Mar 31
Waning Gibbous
Apr 2
Last Quarter
Apr 10
New
Apr 18
First Quarter
Apr 25
Full

Hourly Weather History & Observations

Time (CDT) Temp. Windchill Dew Point Humidity Pressure Visibility Wind Dir Wind Speed Gust Speed Precip Events Conditions
12:02 AM 48.2 °F - 46.4 °F 93% 29.93 in 3.0 mi Calm Calm - N/A   Overcast
12:53 AM 48.0 °F - 46.0 °F 93% 29.91 in 3.0 mi Calm Calm - N/A   Overcast
1:53 AM 48.0 °F - 46.0 °F 93% 29.90 in 3.0 mi Calm Calm - N/A   Overcast
2:04 AM 48.2 °F - 46.4 °F 93% 29.90 in 2.5 mi SW 3.5 mph - N/A   Overcast
2:13 AM 48.2 °F - 46.4 °F 93% 29.89 in 2.5 mi WSW 3.5 mph - N/A   Overcast
2:53 AM 48.0 °F - 46.0 °F 93% 29.89 in 2.5 mi SW 5.8 mph - N/A   Overcast
3:40 AM 46.4 °F - 46.4 °F 100% 29.88 in 2.0 mi Calm Calm - N/A   Mostly Cloudy
3:53 AM 46.9 °F - 45.0 °F 93% 29.88 in 2.0 mi Calm Calm - N/A   Mostly Cloudy
4:16 AM 46.4 °F - 44.6 °F 93% 29.88 in 1.8 mi Calm Calm - N/A   Overcast
4:27 AM 46.4 °F 45.2 °F 44.6 °F 93% 29.87 in 1.8 mi NW 3.5 mph - N/A   Overcast
4:47 AM 46.4 °F - 46.4 °F 100% 29.88 in 2.0 mi Calm Calm - N/A   Overcast
4:53 AM 46.9 °F - 46.0 °F 97% 29.88 in 2.0 mi Calm Calm - N/A   Overcast
5:16 AM 48.2 °F - 46.4 °F 93% 29.88 in 3.0 mi Calm Calm - N/A   Overcast
5:53 AM 48.0 °F - 46.0 °F 93% 29.89 in 5.0 mi WNW 5.8 mph - N/A   Mostly Cloudy
6:53 AM 48.9 °F - 46.0 °F 90% 29.91 in 5.0 mi WNW 5.8 mph - N/A   Mostly Cloudy
7:53 AM 48.9 °F - 46.0 °F 90% 29.92 in 4.0 mi NW 4.6 mph - N/A   Overcast
8:53 AM 48.9 °F - 46.9 °F 93% 29.91 in 4.0 mi Calm Calm - N/A   Partly Cloudy
9:44 AM 51.8 °F - 48.2 °F 88% 29.91 in 4.0 mi Calm Calm - N/A   Partly Cloudy
9:53 AM 52.0 °F - 48.0 °F 86% 29.91 in 5.0 mi West 3.5 mph - N/A   Scattered Clouds
10:53 AM 57.0 °F - 48.9 °F 74% 29.90 in 7.0 mi Calm Calm - N/A   Partly Cloudy
11:53 AM 60.1 °F - 48.0 °F 64% 29.88 in 10.0 mi Calm Calm - N/A   Clear
12:53 PM 64.0 °F - 46.0 °F 52% 29.88 in 10.0 mi WNW 8.1 mph 16.1 mph N/A   Scattered Clouds
1:53 PM 64.9 °F - 39.9 °F 40% 29.87 in 10.0 mi WNW 6.9 mph - N/A   Clear
2:53 PM 66.0 °F - 37.0 °F 34% 29.86 in 10.0 mi Variable 6.9 mph 16.1 mph N/A   Partly Cloudy
3:53 PM 66.9 °F - 35.1 °F 31% 29.85 in 10.0 mi NW 15.0 mph 25.3 mph 0.00 in   Partly Cloudy
4:53 PM 66.0 °F - 36.0 °F 33% 29.85 in 10.0 mi NW 12.7 mph - N/A   Scattered Clouds
5:53 PM 64.9 °F - 35.1 °F 33% 29.85 in 10.0 mi WNW 11.5 mph 19.6 mph N/A   Scattered Clouds
6:53 PM 63.0 °F - 37.9 °F 40% 29.86 in 10.0 mi NW 13.8 mph - N/A   Overcast
7:53 PM 60.1 °F - 39.0 °F 46% 29.87 in 10.0 mi NW 11.5 mph - N/A   Mostly Cloudy
8:53 PM 59.0 °F - 39.9 °F 49% 29.89 in 10.0 mi NW 15.0 mph - N/A   Mostly Cloudy
9:53 PM 57.0 °F - 39.9 °F 53% 29.92 in 10.0 mi NNW 9.2 mph - N/A   Mostly Cloudy
10:53 PM 55.0 °F - 37.9 °F 53% 29.93 in 10.0 mi NNW 15.0 mph - N/A   Mostly Cloudy